Tracking 19634 objects as of 21-May-2019
HD Live streaming from Space Station
objects crossing your sky now

RELAY 2

Track RELAY 2 now!
10-day predictions
RELAY 2 is classified as:


NORAD ID: 737
Int'l Code: 1964-003A
Perigee: 1,873.8 km
Apogee: 7,640.9 km
Inclination: 46.5 °
Period: 194.7 minutes
Semi major axis: 11128 km
RCS: 0.7112 m2 (medium)
Launch date: January 21, 1964
Source: United States (US)
Launch site: AIR FORCE EASTERN TEST RANGE (AFETR)
aabbcc
Your satellite tracking list
Your tracking list is empty




NASA's NSSDC Master Catalog

Two Line Element Set (TLE):
1   737U 64003A   19137.74326281 -.00000018  00000-0  00000+0 0  9993
2   737  46.4665  17.4234 2591145   1.1085 359.4051  7.39532696494928
Source of the keplerian elements: AFSPC